User: anonymous   Login
Location: Haliburton Scout Reserve
(45.0900°N, 78.3200°W)
Time: 15:45:39
(UTC-04:00)
Language:

IDEFIX/ARIANE 42P - Orbit

View from above orbital plane
View from above orbital plane
View from above satellite
View from above satellite

Ground track
Ground track

The orbit data is extracted from the following two-line orbital elements,

1 27422U 02021B   15209.16399725  .00000028  00000-0  27077-4 0  9998
2 27422 098.2549 236.2697 0013574 119.4440 240.8099 14.29200318688110
Epoch (UTC): 28 July 2015 03:56:09
Eccentricity: 0.0013574
inclination: 98.2549°
perigee height: 784 km
apogee height: 804 km
right ascension of ascending node: 236.2697°
argument of perigee: 119.4440°
revolutions per day: 14.29200318
mean anomaly at epoch: 240.8099°
orbit number at epoch: 68811

The dashed part of the orbit path shows where the satellite is in the earth's shadow,  

DLR